• In Deutschland
  • Länderverzeichnis
  • Für 7 Tage
  • Wassertemperatur
  • Satellitenkarten
  • Wetterkarte
  • Widgets
  • user-avatar
    Anmelden

    Stündliche Wetter Townsville

    Heute, 24 August, Donnerstag

    Zeit Temperatur Niederschläge Wind Luftdruck Luftfeuchtigkeit
    00:00 +19°C° 0 mm 2 m/S 756 mmHg 89%
    01:00 +19°C° 0 mm 2 m/S 756 mmHg 91%
    02:00 +19°C° 0 mm 2 m/S 756 mmHg 91%
    03:00 +19°C° 0 mm 2 m/S 756 mmHg 92%
    04:00 +19°C° 0 mm 2 m/S 755 mmHg 92%
    05:00 +20°C° 0 mm 1 m/S 756 mmHg 91%
    06:00 +20°C° 0 mm 1 m/S 756 mmHg 91%
    07:00 +20°C° 0 mm 1 m/S 756 mmHg 90%
    08:00 +22°C° 0 mm 1 m/S 756 mmHg 77%
    09:00 +25°C° 0 mm 1 m/S 756 mmHg 64%
    10:00 +28°C° 0 mm 1 m/S 756 mmHg 52%
    11:00 +29°C° 0 mm 2 m/S 756 mmHg 48%
    12:00 +30°C° 0 mm 2 m/S 755 mmHg 44%
    13:00 +31°C° 0 mm 2 m/S 754 mmHg 40%
    14:00 +31°C° 0 mm 3 m/S 754 mmHg 42%
    15:00 +30°C° 0 mm 3 m/S 753 mmHg 43%
    16:00 +30°C° 0 mm 3 m/S 753 mmHg 45%
    17:00 +27°C° 0 mm 3 m/S 753 mmHg 56%
    18:00 +25°C° 0 mm 3 m/S 753 mmHg 66%
    19:00 +22°C° 0 mm 3 m/S 754 mmHg 77%
    20:00 +21°C° 0 mm 2 m/S 754 mmHg 80%
    21:00 +20°C° 0 mm 2 m/S 754 mmHg 83%
    22:00 +21°C° 0 mm 1 m/S 755 mmHg 87%
    23:00 +20°C° 0 mm 1 m/S 755 mmHg 88%

    Morgen, 25 August, Freitag

    Zeit Temperatur Niederschläge Wind Luftdruck Luftfeuchtigkeit
    00:00 +20°C° 0 mm 1 m/S 755 mmHg 89%
    01:00 +20°C° 0 mm 1 m/S 755 mmHg 90%
    02:00 +20°C° 0 mm 1 m/S 754 mmHg 88%
    03:00 +19°C° 0 mm 1 m/S 754 mmHg 85%
    04:00 +18°C° 0 mm 2 m/S 754 mmHg 83%
    05:00 +18°C° 0 mm 3 m/S 755 mmHg 69%
    06:00 +17°C° 0 mm 3 m/S 755 mmHg 55%
    07:00 +17°C° 0 mm 4 m/S 755 mmHg 41%
    08:00 +20°C° 0 mm 4 m/S 756 mmHg 37%
    09:00 +22°C° 0 mm 4 m/S 756 mmHg 32%
    10:00 +26°C° 0 mm 5 m/S 756 mmHg 27%
    11:00 +28°C° 0 mm 4 m/S 756 mmHg 25%
    12:00 +30°C° 0 mm 3 m/S 755 mmHg 23%
    13:00 +32°C° 0 mm 2 m/S 754 mmHg 21%
    14:00 +31°C° 0 mm 3 m/S 754 mmHg 24%
    15:00 +32°C° 0 mm 4 m/S 754 mmHg 27%
    16:00 +30°C° 0 mm 5 m/S 753 mmHg 30%
    17:00 +27°C° 0 mm 5 m/S 754 mmHg 45%
    18:00 +25°C° 0 mm 4 m/S 754 mmHg 61%
    19:00 +21°C° 0 mm 4 m/S 755 mmHg 76%
    20:00 +20°C° 0 mm 3 m/S 755 mmHg 82%
    21:00 +20°C° 0 mm 3 m/S 756 mmHg 87%
    22:00 +19°C° 0 mm 2 m/S 756 mmHg 93%
    23:00 +19°C° 0,1 mm 3 m/S 756 mmHg 94%

    übermorgen, 26 August, Samstag

    Zeit Temperatur Niederschläge Wind Luftdruck Luftfeuchtigkeit
    00:00 +19°C° 0,1 mm 3 m/S 756 mmHg 95%
    01:00 +19°C° 0,1 mm 3 m/S 756 mmHg 96%
    02:00 +18°C° 0 mm 4 m/S 756 mmHg 95%
    03:00 +18°C° 0 mm 4 m/S 756 mmHg 93%
    04:00 +17°C° 0 mm 4 m/S 755 mmHg 92%
    05:00 +17°C° 0 mm 4 m/S 756 mmHg 86%
    06:00 +15°C° 0 mm 4 m/S 756 mmHg 81%
    07:00 +15°C° 0 mm 5 m/S 757 mmHg 75%
    08:00 +19°C° 0 mm 5 m/S 757 mmHg 64%
    09:00 +21°C° 0 mm 5 m/S 758 mmHg 54%
    10:00 +25°C° 0 mm 5 m/S 758 mmHg 44%
    11:00 +27°C° 0 mm 5 m/S 757 mmHg 37%
    12:00 +28°C° 0 mm 5 m/S 756 mmHg 31%
    13:00 +30°C° 0 mm 4 m/S 756 mmHg 24%
    14:00 +29°C° 0 mm 5 m/S 755 mmHg 25%
    15:00 +29°C° 0 mm 5 m/S 755 mmHg 26%
    16:00 +29°C° 0 mm 5 m/S 755 mmHg 27%
    17:00 +26°C° 0 mm 5 m/S 755 mmHg 42%
    18:00 +22°C° 0 mm 4 m/S 756 mmHg 57%
    19:00 +20°C° 0 mm 4 m/S 756 mmHg 73%
    20:00 +19°C° 0 mm 4 m/S 757 mmHg 76%
    21:00 +19°C° 0 mm 4 m/S 757 mmHg 80%
    22:00 +18°C° 0 mm 4 m/S 758 mmHg 84%
    23:00 +18°C° 0 mm 4 m/S 758 mmHg 86%

    27 August, Sonntag

    Zeit Temperatur Niederschläge Wind Luftdruck Luftfeuchtigkeit
    00:00 +17°C° 0 mm 4 m/S 757 mmHg 89%
    01:00 +17°C° 0 mm 4 m/S 757 mmHg 91%
    02:00 +17°C° 0 mm 4 m/S 757 mmHg 92%
    03:00 +17°C° 0 mm 4 m/S 756 mmHg 93%
    04:00 +15°C° 0 mm 4 m/S 756 mmHg 94%
    05:00 +15°C° 0 mm 4 m/S 757 mmHg 94%
    06:00 +15°C° 0 mm 4 m/S 757 mmHg 95%
    07:00 +15°C° 0 mm 4 m/S 758 mmHg 95%
    08:00 +19°C° 0 mm 4 m/S 758 mmHg 78%
    09:00 +22°C° 0 mm 4 m/S 758 mmHg 62%
    10:00 +26°C° 0 mm 4 m/S 758 mmHg 46%
    11:00 +27°C° 0 mm 4 m/S 757 mmHg 43%
    12:00 +28°C° 0 mm 4 m/S 756 mmHg 40%
    13:00 +30°C° 0 mm 4 m/S 756 mmHg 37%
    14:00 +29°C° 0 mm 5 m/S 755 mmHg 42%
    15:00 +28°C° 0 mm 5 m/S 755 mmHg 46%
    16:00 +27°C° 0 mm 5 m/S 755 mmHg 51%
    17:00 +25°C° 0 mm 5 m/S 755 mmHg 61%
    18:00 +23°C° 0 mm 5 m/S 756 mmHg 71%
    19:00 +21°C° 0 mm 4 m/S 756 mmHg 81%
    20:00 +20°C° 0,1 mm 5 m/S 756 mmHg 85%
    21:00 +20°C° 0,1 mm 5 m/S 757 mmHg 89%
    22:00 +20°C° 0,1 mm 5 m/S 757 mmHg 92%
    23:00 +19°C° 0,2 mm 5 m/S 757 mmHg 93%

    28 August, Montag

    Zeit Temperatur Niederschläge Wind Luftdruck Luftfeuchtigkeit
    00:00 +19°C° 0,2 mm 5 m/S 757 mmHg 94%
    01:00 +19°C° 0,2 mm 5 m/S 756 mmHg 95%
    02:00 +17°C° 0,2 mm 5 m/S 756 mmHg 95%
    03:00 +17°C° 0,2 mm 5 m/S 756 mmHg 95%
    04:00 +17°C° 0,2 mm 5 m/S 756 mmHg 95%
    05:00 +17°C° 0 mm 5 m/S 756 mmHg 95%
    06:00 +17°C° 0 mm 5 m/S 757 mmHg 94%
    07:00 +17°C° 0 mm 5 m/S 757 mmHg 94%
    08:00 +20°C° 0 mm 5 m/S 757 mmHg 81%
    09:00 +23°C° 0 mm 5 m/S 758 mmHg 68%
    10:00 +27°C° 0 mm 5 m/S 758 mmHg 55%
    11:00 +28°C° 0 mm 6 m/S 757 mmHg 50%
    12:00 +29°C° 0 mm 6 m/S 756 mmHg 44%
    13:00 +30°C° 0 mm 6 m/S 756 mmHg 39%
    14:00 +29°C° 0 mm 6 m/S 755 mmHg 41%
    15:00 +29°C° 0 mm 6 m/S 755 mmHg 43%
    16:00 +28°C° 0 mm 6 m/S 755 mmHg 45%
    17:00 +26°C° 0 mm 6 m/S 755 mmHg 53%
    18:00 +23°C° 0 mm 6 m/S 756 mmHg 61%
    19:00 +21°C° 0 mm 5 m/S 756 mmHg 69%
    20:00 +21°C° 0 mm 5 m/S 757 mmHg 74%
    21:00 +20°C° 0 mm 5 m/S 757 mmHg 78%
    22:00 +19°C° 0 mm 5 m/S 758 mmHg 83%
    23:00 +19°C° 0,1 mm 5 m/S 757 mmHg 85%

    29 August, Dienstag

    Zeit Temperatur Niederschläge Wind Luftdruck Luftfeuchtigkeit
    00:00 +19°C° 0,1 mm 5 m/S 757 mmHg 88%
    01:00 +17°C° 0,1 mm 5 m/S 757 mmHg 91%
    02:00 +17°C° 0,1 mm 5 m/S 757 mmHg 93%
    03:00 +17°C° 0,1 mm 5 m/S 757 mmHg 94%
    04:00 +16°C° 0,1 mm 5 m/S 757 mmHg 95%
    05:00 +17°C° 0 mm 5 m/S 757 mmHg 95%
    06:00 +17°C° 0 mm 5 m/S 757 mmHg 94%
    07:00 +17°C° 0 mm 5 m/S 758 mmHg 94%
    08:00 +21°C° 0 mm 5 m/S 758 mmHg 81%
    09:00 +23°C° 0 mm 6 m/S 758 mmHg 68%
    10:00 +27°C° 0 mm 6 m/S 758 mmHg 55%
    11:00 +28°C° 0 mm 6 m/S 757 mmHg 50%
    12:00 +29°C° 0 mm 7 m/S 757 mmHg 45%
    13:00 +30°C° 0 mm 7 m/S 756 mmHg 40%
    14:00 +30°C° 0 mm 7 m/S 756 mmHg 42%
    15:00 +29°C° 0 mm 7 m/S 756 mmHg 44%
    16:00 +29°C° 0 mm 7 m/S 756 mmHg 46%
    17:00 +27°C° 0 mm 7 m/S 756 mmHg 56%
    18:00 +24°C° 0 mm 6 m/S 757 mmHg 66%
    19:00 +21°C° 0 mm 6 m/S 757 mmHg 76%
    20:00 +21°C° 0 mm 6 m/S 757 mmHg 80%
    21:00 +21°C° 0 mm 6 m/S 758 mmHg 84%
    22:00 +20°C° 0 mm 6 m/S 758 mmHg 88%
    23:00 +20°C° 0 mm 6 m/S 758 mmHg 90%
    Mehr zeigen